Location: *
(33.8649°S, 62.1526°E)
Time: 04:46:54
(UTC+00:00)

Cosmos 1709 Rocket - Pass Details

Date: 17 January 2021
Orbit: 948 x 1001 km, 82.9° (Epoch: 27 February)

Event Time Altitude Azimuth Distance (km) Brightness Sun altitude
Rises 18:01:44 0° 189° (S) 3,753 8.1 -28.5°
Reaches altitude 10° 18:04:18 10° 191° (S) 2,793 7.2 -28.8°
Maximum altitude 18:10:41 70° 273° (W) 1,059 4.1 -29.5°
Enters shadow 18:11:17 66° 309° (NW) 1,084 4.1 -29.5°
